MMS 1

Last updated on Wed Sep 09 2026 00:02:53 GMT+0000 (Coordinated Universal Time)

1 40482U 15011A 26251.66668981 -.00002129 00000+0 00000+0 0 9995 2 40482 72.8993 347.8079 8259452 169.2964 173.9540 0.28338553 1397
UTC large
Height (km)
Speed (km/s)
/
Latitude / Longitude
Inclination (degrees)
Orbital Period (minutes)
Azimuth
Elevation
Range (km)
Doppler Factor

Next 0 passes for location: London (51.5072 / 0.1276)

No passes found over London.
MMS 1